Weather in Perce

Canada     48°31′19″N   64°12′59″W
temp.,
°C
wind,
m/s
gust,
m/s
humid.,
%
clouds,
%
prec.,
mm/h
press.,
hPa
HPBL,
m
16 may, sun
sun1623:00+5sw2394100 3.9 1025147
02:00+5w229285 4.5 1025102
05:00+5nw119179 0.0 102513
08:00+7sse228411 0.0 1027263
11:00+7sse437662 0.0 1028602
14:00+8sse44738 0.0 1028594
17:00+7sse44745 0.0 1028396
20:00+5sse23875 0.0 102945
17 may, mon
mon1723:00+5s22875 0.0 102941
02:00+4s1287100 0.0 102944
05:00+5sse238885 0.0 1029132
08:00+6sse347523 0.0 1029407
11:00+7se4372100 0.0 1029463
14:00+7sse4576100 0.0 1028439
17:00+6sse3486100 0.5 1027228
20:00+6ssw2384100 0.5 102656
18 may, tue
tue1823:00+5ssw33875 0.0 102568
02:00+4sw3491100 0.0 102391
05:00+5ssw3594100 0.0 1021152
08:00+7ssw5792100 0.1 1020321
11:00+6sw4898100 4.3 1018320
14:00+7w2496100 9.5 1016145
17:00+8nnw488919 0.1 1017410
20:00+7nnw33861 0.1 101826
19 may, wed
wed1923:00+5nw33895 0.0 101951
02:00+5nw410870 0.0 1019289
05:00+5nnw71377100 0.0 1020778
08:00+6n9137685 0.0 1022920
11:00+6n81079100 0.0 1024727
14:00+7nne787867 0.0 1025573
17:00+7nne4681100 0.0 1026346
20:00+5ne229045 0.0 102847
20 may, thu
thu2023:00+5ssw119128 0.0 102911
02:00+5sw339172 0.0 102999
05:00+5sw369310 0.0 1029167
08:00+8ssw6880100 0.0 1030341
11:00+9ssw69775 0.0 1030388
14:00+9s79745 0.0 1029362
17:00+9ssw69793 0.0 1028252
20:00+7ssw49911 0.0 1027184